Theta_e
355 355 356 356 357 357 358 359 362 363 361 360 361 362 360 360 360 361 360 360 359 351 352 348 355 355 350 355 358 356 357 358 356 354 354 356 357 360 361 361 359 360 359 359 359 359 357 357 357 356 357 357 357 357 356 357 357 358 359 359 359 359 360 360 359 360 360 361 361 361 361 361 359 359 360 360 361 361 361 361 362 363 362 362 362
354 356 357 355 357 356 357 357 359 361 360 358 361 362 360 360 357 356 356 359 355 360 362 352 346 347 350 348 349 348 357 357 360 359 358 357 355 357 363 361 362 360 359 359 358 359 359 360 359 358 358 359 359 358 358 359 360 360 360 360 360 361 361 361 361 361 362 362 363 363 362 361 361 361 361 361 362 362 363 364 364 364 364 364 364
355 357 359 357 354 356 354 358 359 358 359 359 363 361 361 359 358 357 355 356 359 355 353 351 355 347 350 348 349 350 352 355 352 352 352 351 352 356 360 362 363 362 361 361 360 359 360 360 360 360 360 360 360 360 359 360 360 360 361 361 362 362 362 362 362 362 363 363 363 363 362 362 362 362 362 362 363 364 365 365 364 364 364 364 363
358 356 357 355 355 356 356 356 356 358 360 357 359 361 360 357 357 358 355 361 368 360 364 362 350 348 350 346 350 351 351 354 349 350 353 354 354 354 357 358 361 362 362 361 362 361 362 360 360 360 361 360 360 360 362 361 361 362 362 362 363 364 364 364 365 365 365 365 364 363 363 363 363 363 364 365 365 365 364 364 364 363 361 361 359
361 356 355 356 355 357 355 354 355 357 359 358 360 359 356 355 354 357 364 360 356 364 354 352 355 356 354 346 353 352 351 350 352 345 350 354 357 355 356 356 356 362 362 361 361 361 359 361 360 362 361 362 362 363 363 364 364 364 364 365 365 365 366 366 366 366 366 366 365 364 364 364 364 365 366 365 365 364 364 363 361 358 358 357 355
357 359 358 356 355 353 359 358 358 359 357 358 354 358 359 356 354 359 361 360 360 358 351 354 349 352 361 350 349 350 346 345 347 344 352 354 358 359 358 356 358 357 359 361 362 362 361 361 362 363 362 363 364 365 366 366 367 367 367 368 368 368 368 368 368 367 367 367 366 365 365 366 365 365 365 364 364 364 362 358 357 356 357 354 353
357 355 352 352 354 353 353 355 353 354 360 361 363 360 358 353 360 361 359 360 356 361 353 357 351 356 356 366 360 356 357 347 348 355 350 347 352 355 360 359 359 359 359 359 362 364 363 363 364 364 364 365 366 367 367 367 368 369 369 369 369 369 369 369 368 368 368 367 366 366 367 366 365 365 365 364 363 360 357 355 354 355 354 353 354
356 351 350 350 353 351 352 355 350 352 358 357 359 353 356 359 368 363 364 358 359 355 360 364 356 346 358 360 355 363 356 348 350 340 343 358 352 361 361 363 363 360 364 359 359 362 367 366 365 364 366 367 367 368 368 369 369 369 369 368 369 369 369 369 369 368 368 367 367 367 366 365 365 365 364 361 361 359 354 354 354 353 353 353 355
363 359 361 350 350 353 355 355 356 362 368 372 365 365 363 360 371 373 367 365 359 351 352 358 354 349 346 345 349 364 349 352 358 351 347 348 350 350 354 364 367 363 364 360 363 363 369 369 367 368 368 367 367 367 368 368 368 367 367 368 368 368 368 369 369 369 369 368 367 367 366 365 364 363 362 360 360 355 354 352 352 353 354 354 354
370 371 369 362 363 360 361 366 368 370 369 368 368 369 367 363 366 370 367 368 364 356 352 353 349 343 350 336 350 345 350 353 347 354 350 350 358 351 351 352 360 359 363 360 362 362 359 365 371 369 370 369 370 370 368 366 365 366 367 366 366 368 369 368 369 369 369 369 368 366 366 365 364 363 362 361 357 355 354 353 352 353 354 354 353
367 370 370 363 365 365 366 365 369 370 373 365 364 367 367 362 360 366 370 367 366 363 356 360 345 340 338 342 350 359 358 355 362 352 352 348 346 348 349 355 356 360 360 364 357 359 360 360 364 366 365 370 372 371 369 366 364 365 365 366 367 370 371 369 369 368 369 369 367 366 366 365 365 364 361 360 358 355 353 353 352 353 353 353 352
369 369 367 365 363 366 364 364 368 368 366 360 361 362 364 363 362 362 364 364 364 360 355 359 347 341 350 348 357 358 349 351 354 350 354 349 353 351 347 353 361 357 356 362 365 358 369 369 363 365 363 366 371 372 369 368 366 364 364 366 369 371 370 370 370 369 369 369 367 365 365 365 365 363 361 360 359 355 354 354 354 353 353 352 352
368 368 364 366 368 366 364 363 366 364 363 361 359 358 364 362 364 363 360 360 359 359 357 357 362 354 363 350 361 364 357 358 346 343 341 348 350 359 351 353 358 359 358 359 361 354 356 369 367 369 372 363 370 372 369 367 365 365 365 367 369 370 370 370 369 369 371 369 367 366 364 366 365 363 362 359 359 358 355 354 354 353 353 352 351
369 369 366 364 364 363 366 367 367 366 363 362 361 367 363 361 360 362 363 359 357 348 349 359 355 349 350 347 350 352 356 347 345 342 342 343 345 348 352 344 343 349 358 362 362 355 347 359 362 363 365 372 367 368 368 366 367 369 367 368 368 369 370 370 370 369 369 368 367 367 366 365 364 362 362 361 359 357 357 356 355 354 354 353 352
366 370 365 364 364 363 362 368 366 368 365 362 359 362 363 360 360 361 360 361 358 360 366 360 350 350 360 355 346 341 348 349 345 342 342 342 341 343 346 343 344 350 361 360 360 354 347 355 367 367 368 369 370 369 371 368 367 368 369 367 367 371 370 370 370 370 368 368 367 367 368 366 365 365 363 361 361 359 358 358 356 355 354 354 353
360 361 364 366 364 364 363 366 369 368 366 366 362 361 363 362 362 364 363 356 352 356 358 363 358 363 347 348 346 344 341 347 349 355 340 340 340 341 341 342 344 347 353 348 350 354 355 360 363 366 373 374 373 370 359 356 368 372 369 369 367 367 369 370 369 369 369 369 369 368 367 368 367 364 364 362 362 360 359 359 359 357 356 355 354
361 361 363 365 366 370 368 367 368 367 366 365 366 363 361 360 365 365 360 357 351 353 358 360 367 367 362 357 346 346 343 337 338 359 348 341 340 340 345 341 344 347 346 347 349 350 348 356 363 366 372 361 366 368 373 363 366 373 369 373 369 369 369 368 368 368 369 370 370 369 369 368 368 367 366 364 364 363 362 361 360 359 359 357 356
366 366 362 363 362 363 365 365 365 366 364 364 366 367 361 362 364 363 361 361 361 359 354 365 362 360 364 377 358 352 349 352 346 354 367 341 341 337 344 341 342 347 357 347 345 345 361 356 363 365 362 363 367 369 372 373 377 375 371 367 372 374 371 369 369 367 369 370 370 371 370 370 370 369 368 367 366 365 364 363 363 362 360 359 358
362 362 363 365 363 363 364 364 363 365 367 368 366 363 359 358 365 366 366 368 367 358 352 356 357 357 349 348 350 355 351 356 346 351 344 347 354 336 339 340 340 340 342 342 344 346 351 351 351 350 358 363 369 371 374 373 365 373 373 375 371 376 373 370 369 367 367 368 371 371 371 370 371 370 369 368 367 366 365 364 362 362 362 361 359
363 365 366 365 363 366 368 367 367 363 368 368 369 365 364 364 369 369 369 371 367 361 360 355 362 357 358 353 353 352 356 351 352 358 357 358 347 342 349 339 342 342 341 342 340 342 345 348 345 348 357 364 369 369 371 366 366 370 362 367 366 374 375 373 373 372 369 368 368 370 372 372 371 370 369 369 368 368 366 365 364 364 363 362 361
364 364 363 366 369 367 368 366 367 365 369 368 364 366 366 368 370 373 369 373 370 365 370 360 353 351 362 365 360 366 359 362 363 362 352 353 346 348 344 342 347 345 343 343 344 342 345 345 344 345 359 368 369 369 365 378 374 371 365 365 369 370 373 372 371 373 372 372 371 371 371 372 371 371 371 370 369 369 368 366 366 365 365 364 363
366 369 370 369 369 369 365 364 363 361 365 361 363 367 368 368 370 366 371 371 376 367 365 368 360 360 367 366 369 364 363 368 354 352 346 350 347 341 338 339 352 354 362 350 355 344 346 347 347 346 351 356 359 374 368 370 376 371 370 366 370 373 373 371 370 373 373 372 372 372 371 371 371 371 370 370 369 369 369 368 368 367 367 365 364
360 367 366 367 367 368 361 362 363 367 369 369 369 360 361 363 366 370 368 370 371 372 366 371 373 369 365 371 363 357 361 363 351 353 349 350 348 343 337 340 343 342 347 356 349 339 350 347 347 346 354 365 377 371 376 371 367 359 363 362 365 369 370 371 369 370 368 367 370 369 369 370 369 369 369 369 369 369 369 368 368 367 367 367 365
363 362 361 361 367 366 370 366 368 366 363 367 369 364 362 365 371 370 373 374 377 374 368 364 360 372 360 355 357 352 349 355 348 352 362 362 358 349 347 345 346 341 345 361 354 343 354 349 348 351 357 366 376 384 383 375 368 365 363 362 362 365 367 371 372 370 367 365 364 366 367 367 367 365 366 366 366 367 367 367 367 367 367 367 365
361 357 356 359 368 368 366 367 369 370 374 371 370 371 371 365 371 366 368 371 376 377 377 365 361 358 355 354 351 350 358 355 361 352 351 359 357 359 345 348 359 343 351 357 351 346 344 357 359 350 356 372 364 377 372 362 361 367 365 362 358 366 369 369 372 369 367 365 364 366 368 367 367 365 364 365 365 365 365 366 366 366 367 366 366
358 362 355 357 361 362 365 367 372 372 373 373 372 371 370 369 368 374 363 377 383 372 370 364 366 362 369 358 352 351 351 351 355 343 354 351 356 347 357 357 346 348 362 368 362 353 353 362 355 356 365 375 366 374 368 358 355 366 365 362 359 359 363 365 370 369 368 365 363 364 364 365 367 366 366 365 366 367 366 367 366 366 366 367 366
359 362 365 361 360 364 363 365 368 372 371 371 366 372 372 371 370 372 374 370 375 376 367 362 353 358 360 364 364 356 353 354 346 353 351 354 355 352 365 357 348 345 353 357 354 348 340 345 347 356 370 366 374 363 358 359 358 363 365 362 365 358 358 363 366 367 367 365 365 364 364 364 366 366 367 366 365 366 366 366 366 366 366 366 366
368 365 362 365 365 364 365 362 369 366 369 371 371 367 368 370 374 374 367 361 366 368 369 364 357 363 359 364 365 345 357 353 353 358 354 357 359 373 367 361 356 349 349 347 348 349 345 345 360 367 364 372 366 363 366 361 357 360 365 359 363 363 360 361 360 361 360 359 359 360 361 361 361 363 367 366 365 364 364 365 365 365 364 364 364
363 364 363 369 369 367 361 359 368 369 369 371 368 371 371 369 365 373 368 363 376 371 368 370 366 355 358 356 361 365 363 371 367 361 364 370 363 365 365 362 358 356 348 347 351 348 350 347 345 366 362 359 364 365 360 358 362 361 360 363 366 366 360 354 357 355 355 354 355 356 357 359 360 362 365 366 364 363 362 362 362 362 362 361 362
361 356 364 362 369 366 366 368 362 365 366 363 366 367 371 371 368 371 368 374 373 372 370 365 365 365 361 359 356 356 361 358 358 351 363 362 363 363 362 370 360 356 361 350 350 353 351 352 349 353 367 356 360 361 359 360 365 362 367 366 367 363 356 351 353 352 352 353 353 354 357 359 361 361 360 359 357 356 358 359 361 361 362 363 363
366 371 364 361 364 365 369 364 365 367 367 365 368 370 369 368 367 365 369 373 369 370 371 370 357 363 363 364 365 365 368 358 359 352 364 370 369 369 370 368 375 375 366 361 347 359 358 353 354 352 350 350 348 348 348 353 360 360 365 368 367 356 352 354 353 352 351 351 351 352 352 354 355 354 352 352 352 353 355 359 360 361 361 361 362
357 364 360 361 360 357 358 357 357 359 361 362 361 368 369 368 365 360 364 371 369 368 363 364 356 364 365 362 371 366 366 366 364 360 368 367 361 361 356 362 374 369 360 355 350 350 364 355 354 354 353 351 353 350 351 352 352 359 368 368 366 359 360 358 355 353 352 351 351 350 350 350 349 349 350 351 352 354 356 359 360 359 360 360 360
358 361 360 362 361 359 356 359 356 361 366 365 364 369 368 369 369 370 366 372 370 369 370 365 360 364 367 367 368 367 371 368 370 361 357 355 359 356 356 362 355 356 355 355 352 355 362 367 360 356 356 358 351 359 354 354 355 359 358 359 367 359 356 356 353 348 349 350 349 349 350 348 346 346 348 350 352 353 355 357 355 355 357 355 354
359 358 360 357 360 359 355 357 361 361 366 371 358 364 367 368 364 359 361 371 373 370 370 370 369 361 365 364 369 364 370 363 360 355 355 352 351 348 360 352 355 357 358 357 360 357 354 364 362 364 358 359 352 364 358 356 355 361 356 358 357 356 351 353 352 350 350 350 347 347 348 346 345 344 345 348 351 352 353 352 350 348 348 347 344
359 360 358 356 365 364 364 366 370 367 371 365 365 365 366 368 366 360 357 364 365 362 362 365 362 367 364 366 362 363 357 358 360 357 355 358 354 354 354 359 356 355 360 368 364 358 355 358 364 357 359 363 360 359 362 360 362 359 361 360 352 353 355 355 354 353 348 348 348 347 345 344 344 343 343 345 347 347 347 345 341 339 340 339 337
354 362 362 360 363 368 363 367 368 369 368 367 363 364 367 369 368 368 368 368 365 364 363 362 361 363 361 363 360 361 361 364 365 368 365 357 358 366 369 367 364 365 366 369 369 363 361 354 363 360 363 362 363 363 362 360 357 359 358 360 360 358 358 357 356 353 352 343 348 347 345 343 342 341 341 341 340 338 337 337 336 336 336 336 336
361 356 361 361 369 367 357 361 366 366 365 366 366 360 363 366 366 362 364 367 365 367 365 367 364 367 366 364 363 364 368 360 364 361 360 362 365 366 361 366 369 369 366 369 368 370 362 359 359 364 366 364 364 363 364 360 360 362 368 364 361 359 360 358 353 353 349 345 343 343 341 341 341 341 340 339 339 338 337 336 335 335 335 334 335
359 357 356 357 360 365 364 363 365 368 367 367 368 367 360 362 362 362 366 367 364 363 362 360 361 363 360 363 363 363 362 361 361 365 369 369 369 364 363 366 370 372 368 369 369 367 368 365 363 357 360 360 361 371 369 365 361 359 361 363 364 363 363 361 356 352 351 350 350 352 346 345 343 338 338 338 337 337 337 336 336 335 334 333 330
355 355 356 359 362 360 365 361 360 366 367 362 370 370 367 363 365 364 360 360 362 362 361 359 357 358 358 357 362 362 361 363 360 361 367 368 361 367 371 370 370 369 366 367 362 359 364 361 360 359 357 362 363 356 364 365 362 362 359 358 358 362 366 368 363 361 354 354 353 350 349 347 344 344 338 336 335 335 336 336 336 335 335 333 329
354 354 354 353 355 361 361 359 364 365 368 366 370 372 368 362 367 363 362 361 360 361 360 358 358 356 356 355 353 359 365 369 366 369 370 364 369 366 369 364 372 369 365 366 365 366 362 359 359 355 359 357 357 360 360 363 360 358 362 355 347 356 357 362 360 358 359 360 359 357 353 353 352 351 344 345 346 345 343 342 343 342 340 336 332
354 354 354 354 354 357 359 362 361 360 361 364 365 367 368 370 367 364 363 362 361 361 360 358 358 357 354 351 352 354 368 365 362 370 370 366 363 365 372 371 368 366 367 367 364 366 364 359 357 358 356 354 357 357 358 359 355 348 352 359 356 356 356 355 360 362 362 360 359 358 358 360 358 358 359 359 362 358 357 350 349 349 345 338 335
354 356 355 355 354 355 356 361 360 357 359 360 366 368 370 370 367 365 363 368 365 362 362 361 356 356 356 353 353 358 360 360 357 366 367 362 365 359 366 367 370 367 364 362 361 359 359 358 355 353 349 348 345 347 348 347 347 353 356 357 355 356 357 357 359 363 366 362 359 358 360 363 360 360 362 361 363 364 363 362 359 351 345 341 339
353 361 356 350 352 353 353 355 356 353 355 345 338 336 342 354 365 366 365 369 365 364 359 363 363 359 355 353 349 355 364 362 368 373 367 361 363 361 360 362 366 366 358 356 355 356 355 353 354 350 347 347 351 351 350 349 354 355 356 358 358 358 356 353 350 356 372 363 359 358 358 362 362 360 361 361 363 364 361 360 347 345 340 339 338
367 355 353 357 359 352 349 356 354 353 343 333 329 332 337 337 349 364 359 358 358 359 357 356 357 355 352 350 350 353 356 360 359 373 370 368 363 363 361 360 359 359 358 359 357 354 354 352 354 353 352 351 353 356 353 353 357 358 360 360 359 357 354 353 353 351 359 363 358 355 356 360 361 360 358 360 361 361 359 348 343 345 342 341 339
356 363 366 362 359 358 353 358 353 348 341 328 328 331 332 332 336 353 357 357 353 351 352 353 354 356 358 361 353 353 359 365 358 359 367 371 371 362 361 360 361 357 345 342 346 358 358 358 355 354 356 358 356 358 361 363 364 359 359 356 357 358 358 355 354 353 356 362 358 356 353 356 358 357 356 358 359 359 360 351 346 343 342 341 340
363 363 355 358 359 366 365 355 348 342 335 324 323 326 327 328 333 342 354 354 353 352 354 351 351 357 357 358 359 358 352 346 344 347 354 358 365 366 368 368 367 367 361 347 343 341 349 353 355 353 358 363 360 365 368 364 360 357 356 355 357 355 354 354 356 356 360 364 357 355 350 353 357 355 352 355 358 358 360 348 341 344 341 338 338
351 348 345 347 350 352 352 348 340 332 324 318 319 321 322 324 330 344 356 354 351 351 351 357 359 362 362 360 361 356 348 342 337 339 348 351 352 356 360 360 360 362 362 355 359 360 363 357 356 357 359 364 360 359 362 363 361 360 361 359 358 357 357 360 359 359 357 362 360 357 348 353 357 353 352 354 356 358 361 347 343 342 338 337 337
353 347 350 351 351 353 351 342 338 332 325 316 316 317 319 321 328 357 363 358 355 356 359 359 358 359 356 357 359 352 345 340 331 327 336 349 355 357 359 359 359 359 359 364 342 350 358 358 359 357 355 353 341 352 351 347 353 354 355 358 358 357 354 351 349 352 352 357 358 354 348 349 356 352 351 354 355 354 356 359 347 344 341 340 340
348 345 344 346 349 350 347 341 333 330 327 318 314 314 316 317 340 360 361 362 362 359 357 356 354 351 351 349 348 347 344 339 327 320 325 344 355 355 355 355 355 356 357 359 349 345 339 337 337 339 337 334 334 330 327 328 336 344 355 353 351 350 349 346 348 349 349 352 356 356 352 348 352 353 351 352 352 350 353 357 359 348 342 341 340
345 344 345 345 346 345 342 336 332 329 326 318 312 312 314 316 335 355 360 362 358 356 355 355 354 351 351 354 348 343 341 337 320 320 322 343 350 350 351 350 351 352 353 354 353 353 343 342 343 341 342 340 338 336 339 335 336 350 353 349 350 350 347 347 345 346 348 351 357 355 348 347 351 353 350 351 351 353 354 356 358 354 345 344 342
346 345 347 343 340 340 340 338 336 330 326 322 312 312 312 314 332 355 360 357 353 351 351 352 353 352 345 345 343 335 335 326 316 318 321 338 346 346 348 348 349 350 349 347 346 347 351 352 356 359 358 357 364 363 361 354 356 359 357 353 351 350 346 346 346 345 342 347 356 355 346 346 347 350 351 346 343 349 359 356 356 358 358 358 362
Wind_Speed
5 5 4 4 3 3 1 1 1 1 1 1 1 1 2 1 2 3 3 4 7 6 3 5 3 3 3 2 2 3 3 3 4 8 6 5 5 7 9 7 6 5 5 4 4 3 3 3 3 4 4 3 4 4 3 4 4 5 6 7 6 7 7 7 7 7 8 8 8 8 8 8 7 7 7 7 8 8 8 9 10 11 11 10 10
3 3 4 3 3 3 2 0 0 0 1 1 0 0 2 2 2 3 4 6 7 2 1 1 5 5 4 4 3 3 3 3 1 3 7 5 5 5 11 9 7 6 5 4 4 4 4 4 5 5 6 5 5 5 6 6 6 6 7 7 7 7 8 8 8 8 8 8 9 9 9 8 8 7 7 7 8 8 9 10 10 10 10 10 10
3 3 2 2 1 2 2 0 0 1 1 2 1 1 0 0 3 3 3 8 4 3 5 4 3 4 3 5 4 5 3 4 4 4 7 6 5 5 7 9 8 6 5 5 5 5 5 5 6 6 6 6 7 7 7 7 7 7 7 7 7 8 8 8 8 8 8 8 8 9 9 9 8 7 7 7 8 9 9 8 8 7 8 8 8
4 3 2 2 2 2 2 1 2 2 1 2 2 1 2 2 4 4 6 5 1 3 3 2 4 2 5 5 4 3 4 3 6 5 6 7 6 5 4 5 8 8 7 6 6 6 6 7 6 7 7 7 8 8 8 8 8 8 8 7 8 8 8 8 8 8 8 8 8 8 8 8 8 8 8 9 8 6 6 7 7 7 7 7 7
4 5 3 3 2 3 2 1 1 0 0 3 3 1 3 4 4 7 6 4 4 2 3 3 1 2 3 4 3 3 4 8 3 5 5 6 7 6 5 4 4 8 9 8 8 7 8 8 7 7 8 8 9 9 9 9 9 9 9 9 9 9 9 9 9 8 8 8 7 7 7 7 8 9 8 6 5 6 6 6 5 5 6 6 7
2 3 5 2 3 3 3 1 1 1 1 3 3 1 2 3 7 5 4 4 2 3 5 2 3 3 1 3 3 4 3 4 4 4 5 4 8 7 6 5 5 4 4 8 9 8 8 8 9 9 9 9 9 10 10 10 10 10 9 9 10 10 10 10 9 9 8 7 7 7 8 8 7 7 6 5 5 4 4 4 4 4 4 4 6
5 3 4 2 2 2 2 2 0 3 1 3 2 5 4 5 6 3 4 4 2 3 5 1 2 3 3 1 2 2 2 3 3 3 4 5 5 8 8 6 6 6 5 5 7 10 10 10 10 10 11 10 10 10 10 10 10 10 10 10 9 9 9 9 9 8 8 7 6 6 7 6 5 5 5 4 4 4 4 3 3 3 3 4 5
11 5 3 1 2 2 3 3 2 3 4 3 5 6 6 7 2 2 3 4 5 2 2 1 2 4 2 1 2 1 3 3 4 3 4 3 4 3 4 5 7 6 7 6 5 7 13 12 11 11 10 10 10 10 10 9 9 9 9 9 9 9 9 8 7 7 7 6 6 6 5 4 4 4 4 4 3 3 3 3 2 3 3 4 6
9 11 9 12 12 9 9 12 12 9 6 6 5 3 1 2 2 0 2 2 4 5 3 2 2 4 5 4 3 1 4 4 2 3 5 5 5 4 4 2 1 6 7 6 6 5 10 12 12 11 11 10 10 9 8 8 8 8 8 8 8 8 7 6 6 6 6 6 5 5 3 4 3 3 3 3 2 3 3 2 2 2 4 5 6
2 2 4 3 3 5 4 4 4 3 2 3 3 1 1 2 2 1 2 3 3 3 6 3 3 4 3 6 3 1 3 4 5 4 4 5 3 4 5 4 3 3 3 6 7 5 5 9 11 11 10 10 9 7 7 5 6 6 6 6 6 6 6 5 5 5 5 4 4 3 3 3 3 2 3 2 2 2 2 2 2 3 4 5 6
2 4 2 3 4 4 4 3 3 2 1 2 3 2 2 2 2 2 3 3 4 7 2 2 4 5 4 4 3 3 3 2 2 4 3 5 6 4 6 5 5 5 3 2 4 7 6 5 5 4 6 10 8 7 5 4 2 3 4 5 5 5 5 4 4 4 4 4 3 3 3 3 3 3 2 3 2 3 3 3 3 4 4 6 7
3 4 3 3 3 3 4 3 3 3 2 2 3 1 2 3 3 3 5 5 6 5 6 3 4 6 4 3 2 2 4 4 4 4 4 5 3 3 4 4 3 3 4 2 1 3 1 2 6 6 5 9 10 8 8 6 4 3 2 3 4 4 4 3 3 3 4 4 4 3 4 4 4 4 4 3 3 4 4 4 4 4 5 6 7
3 5 5 3 2 4 3 3 3 3 2 3 2 2 1 3 2 2 4 5 5 9 2 3 3 1 1 3 2 2 3 4 4 4 5 4 6 3 4 4 3 3 3 4 2 4 4 0 2 2 2 4 6 9 9 9 7 6 4 2 3 3 3 3 3 4 4 5 4 4 4 4 5 4 5 5 5 5 6 6 5 5 6 7 8
3 3 6 4 4 4 3 2 2 3 3 2 2 2 3 3 2 3 2 4 6 4 4 3 3 2 3 3 3 3 3 5 7 8 6 5 5 4 4 6 4 2 3 3 2 2 3 2 3 3 3 4 4 3 3 4 5 8 7 6 4 4 4 4 4 5 5 5 6 6 6 6 6 6 6 6 6 7 7 8 7 7 7 7 8
4 3 5 4 4 4 3 2 1 2 3 1 2 3 2 2 2 1 5 4 5 1 2 2 4 2 2 1 2 3 4 4 5 6 8 6 5 7 6 7 7 5 2 3 2 3 2 2 2 3 3 2 6 5 5 5 5 7 7 7 6 6 5 5 5 5 6 7 7 7 7 6 7 7 8 8 8 8 8 8 8 8 8 8 9
5 5 5 3 5 4 3 2 2 2 1 2 1 1 1 1 2 2 2 4 5 2 1 2 3 4 3 2 2 2 1 1 2 1 5 8 6 8 6 5 6 5 3 4 4 3 3 3 0 1 1 1 1 6 5 5 8 10 9 7 7 6 6 6 6 7 8 8 8 8 8 8 8 8 9 9 10 10 10 10 9 9 9 9 9
2 4 6 4 4 3 2 2 2 2 1 1 1 1 1 2 2 3 3 4 7 2 3 2 2 2 3 2 1 2 1 4 2 3 4 3 4 8 8 6 6 7 5 5 5 4 3 2 2 1 1 2 1 0 1 4 5 4 6 7 8 8 7 7 7 8 8 9 9 9 10 10 9 10 10 10 11 11 11 11 10 10 10 10 10
3 3 5 6 4 3 2 2 3 2 2 2 0 1 1 2 2 2 3 4 3 6 2 1 2 1 2 3 5 2 2 3 2 1 4 3 3 3 9 7 7 5 3 6 7 5 3 3 3 3 3 3 2 2 2 3 5 5 4 6 10 8 9 9 8 8 9 10 10 11 11 11 11 11 11 12 12 12 12 11 11 11 10 11 11
4 4 2 6 6 5 4 3 4 3 3 2 2 1 1 2 1 0 3 5 4 4 5 1 5 4 7 4 5 2 2 2 1 1 3 5 3 4 5 8 9 5 4 5 7 6 4 4 5 5 3 3 2 3 2 2 3 3 8 9 10 9 9 10 9 9 9 10 11 11 12 12 12 12 12 12 12 12 12 12 11 12 11 11 11
3 2 2 7 6 5 4 2 2 2 3 2 0 1 2 3 2 0 2 3 3 4 3 6 1 2 5 5 3 4 4 4 4 2 1 1 4 6 0 6 7 6 7 7 5 6 7 5 6 5 4 3 3 2 2 3 3 3 3 7 9 9 10 9 10 9 9 10 11 11 12 12 12 12 12 12 12 12 12 12 12 12 12 12 12
4 5 4 4 5 5 4 3 2 3 2 2 3 2 1 1 3 1 3 3 2 0 2 5 4 3 2 2 3 2 1 1 1 2 2 3 2 1 3 4 3 3 4 2 3 6 6 8 5 6 4 3 1 2 2 2 0 2 1 8 8 8 9 10 9 9 9 10 11 11 11 12 12 12 12 12 12 12 13 12 13 13 14 13 12
4 4 4 4 5 4 5 6 4 5 3 3 4 3 5 4 3 4 3 2 2 3 2 2 3 4 0 2 2 3 3 2 2 2 4 3 1 2 4 4 3 1 1 1 0 5 4 5 5 4 4 4 4 1 3 3 2 2 2 7 9 9 10 10 9 8 8 8 9 10 11 12 12 12 12 12 12 12 12 12 13 13 14 14 13
5 3 5 5 5 5 5 6 5 4 3 1 2 4 4 4 2 3 2 2 2 2 1 2 1 2 2 3 3 2 2 1 2 3 3 3 4 3 2 3 1 4 4 1 3 6 3 5 4 5 4 2 1 1 0 1 3 4 6 6 9 10 11 10 9 8 8 8 7 9 10 11 11 11 12 12 12 12 13 13 12 13 14 14 13
5 5 5 7 4 4 2 2 2 3 5 4 2 2 4 2 1 4 2 0 2 2 2 3 3 2 4 2 4 3 3 3 2 3 2 1 1 2 1 2 4 4 2 1 2 6 1 3 4 4 3 2 1 1 1 2 4 8 4 8 8 10 11 10 10 9 8 8 8 8 9 10 10 10 11 11 12 12 12 12 12 13 13 13 14
5 6 7 7 4 4 4 2 4 2 2 2 4 3 3 2 3 4 3 2 2 1 2 2 1 3 4 5 5 4 1 3 0 1 5 2 2 2 4 2 1 4 2 1 2 4 5 2 2 4 4 1 1 2 2 3 3 4 5 7 7 7 9 10 12 10 7 9 9 8 8 9 10 9 10 10 11 11 12 12 12 12 13 13 13
7 5 6 8 7 6 6 5 3 4 4 2 2 2 5 3 3 1 3 2 1 1 3 1 2 3 0 4 4 4 3 4 2 2 2 2 1 4 3 2 4 1 2 1 2 2 2 1 1 4 3 1 0 1 3 5 4 7 8 6 6 10 11 10 10 7 8 10 9 8 8 9 9 10 10 10 11 11 11 11 12 13 14 13 13
5 6 5 8 6 7 6 4 4 3 3 3 3 2 3 2 1 2 2 3 2 0 2 2 2 1 2 3 1 3 3 4 4 4 2 4 2 2 1 1 3 4 2 1 2 3 3 4 5 3 3 3 2 3 6 5 7 7 8 6 5 8 10 6 7 9 10 11 9 8 9 9 9 10 11 10 10 10 10 11 12 12 13 13 12
4 4 4 3 4 6 5 5 5 5 4 3 3 4 3 3 3 3 3 4 3 3 2 2 3 1 2 2 0 4 3 3 5 3 6 4 4 1 2 2 1 2 4 4 3 3 3 4 2 1 3 3 5 5 8 11 6 6 9 6 4 3 4 7 9 11 12 10 9 9 10 8 10 11 11 11 9 9 11 11 12 12 12 12 12
5 4 6 4 4 4 5 6 5 4 4 4 3 2 3 3 3 2 3 2 2 1 2 1 3 3 2 2 3 1 2 1 1 2 4 2 2 2 2 2 4 1 2 2 3 3 4 8 4 1 3 3 5 6 6 5 5 7 4 4 3 2 5 9 11 13 13 12 11 10 10 9 10 11 11 11 9 9 10 11 11 12 12 12 12
6 7 5 6 4 5 4 3 6 5 5 5 4 3 3 3 3 2 2 2 2 2 2 3 2 3 4 3 1 1 1 4 5 5 4 4 2 2 3 1 6 3 1 1 3 2 4 4 5 3 2 5 6 6 4 2 6 4 3 3 2 3 4 10 11 14 15 15 12 10 10 11 10 11 11 11 10 9 9 10 10 11 12 12 12
4 3 5 6 4 4 4 4 5 4 4 4 5 3 4 3 3 3 3 2 1 2 2 2 4 3 2 2 1 2 2 3 4 3 2 1 2 2 2 1 2 2 1 2 2 2 2 4 4 6 6 5 7 5 6 4 2 3 3 3 3 6 10 9 15 16 17 17 15 10 11 12 11 11 12 11 10 9 9 9 9 10 11 11 12
6 5 5 6 6 7 7 6 7 6 6 5 5 4 3 3 3 4 3 3 2 2 3 3 3 4 4 0 1 1 2 3 3 4 2 2 2 2 4 3 2 2 4 3 4 5 2 4 5 5 7 5 5 6 5 4 5 2 3 4 4 8 7 7 13 17 17 17 13 9 13 13 11 12 13 12 10 10 10 10 10 10 9 10 11
6 8 6 5 6 7 7 5 6 6 4 4 4 4 4 3 2 2 1 2 2 2 3 3 4 3 4 2 2 2 2 2 2 3 4 3 4 6 5 3 3 3 4 4 4 3 2 2 4 6 6 6 6 4 5 4 5 5 4 5 4 5 8 8 5 9 10 7 5 11 14 12 11 13 14 13 11 11 10 11 11 11 10 10 10
6 8 7 6 5 5 6 5 4 4 3 3 4 3 3 3 4 4 5 3 3 3 2 2 2 4 3 1 2 3 3 4 4 5 5 4 3 4 2 5 5 5 5 3 2 2 3 2 4 3 5 6 6 4 6 7 5 4 6 5 5 4 4 5 7 8 6 4 9 12 13 11 11 13 15 14 12 11 12 12 12 12 11 11 10
6 5 6 7 5 5 3 3 2 3 2 3 3 3 4 4 4 4 4 5 5 4 4 4 4 3 4 3 3 4 5 4 5 5 4 3 3 4 4 4 5 5 3 2 1 1 3 3 3 5 4 4 5 6 6 6 4 5 5 4 6 7 6 7 6 8 2 7 10 12 12 10 12 14 16 14 11 13 14 14 14 13 12 11 10
6 4 4 5 6 4 4 3 3 3 4 5 4 4 3 3 3 3 3 2 2 3 4 4 4 4 4 4 4 4 4 3 2 1 2 3 4 3 1 1 3 2 3 2 2 2 2 4 2 4 3 4 4 5 6 5 6 5 5 4 4 5 6 6 5 7 2 7 11 12 9 11 14 16 17 13 12 14 15 15 14 14 13 11 10
2 5 7 5 3 4 6 6 5 5 5 5 4 5 4 4 4 4 3 3 4 3 4 3 4 3 3 3 4 3 3 3 3 2 3 4 2 2 3 2 1 2 2 2 2 2 3 4 4 3 4 4 5 6 5 4 4 4 3 4 5 5 6 5 6 6 10 11 10 9 10 12 14 16 16 14 13 15 16 15 14 15 15 13 11
4 4 6 6 5 5 4 5 6 4 4 4 4 4 4 3 4 4 3 2 3 5 4 5 5 5 5 4 4 4 3 3 3 2 2 2 2 2 3 3 0 1 2 2 2 3 2 2 3 4 5 6 3 2 3 4 4 4 4 5 5 6 5 4 3 6 7 7 7 8 12 12 11 11 11 12 14 15 15 14 15 16 17 16 12
7 7 6 4 6 7 5 4 6 5 4 5 3 3 3 4 2 1 0 3 4 2 3 5 6 6 6 7 4 4 4 3 3 3 2 2 2 2 2 2 2 2 1 2 3 4 3 3 4 5 5 3 2 4 3 4 4 5 6 5 5 4 3 2 3 3 5 7 10 12 11 11 10 8 11 15 13 12 14 15 15 16 16 16 13
8 8 8 7 7 7 6 6 4 4 3 3 2 3 3 4 3 3 3 3 3 2 2 4 6 8 7 7 7 3 2 2 2 2 2 2 2 2 1 3 1 1 3 3 2 2 3 3 3 4 3 5 5 5 5 3 3 5 5 5 5 3 4 3 3 5 6 6 6 7 9 11 12 13 13 12 13 14 14 14 13 14 15 14 11
8 8 7 7 6 5 5 5 5 6 6 4 3 3 4 4 2 4 3 4 3 2 3 4 4 5 9 9 6 3 6 7 9 3 4 4 2 0 1 2 3 3 2 2 3 3 3 4 5 4 5 5 5 5 3 2 3 6 4 4 4 4 5 6 5 5 5 6 5 7 8 9 11 10 10 9 8 10 10 11 10 12 13 13 12
7 7 9 9 9 8 7 6 7 6 5 4 4 4 6 3 4 3 3 1 1 1 2 3 5 6 7 7 6 4 8 6 2 5 7 7 4 2 1 1 2 2 3 3 4 4 3 4 4 5 5 5 5 4 6 6 6 4 6 7 8 7 7 6 6 3 4 5 6 7 8 8 10 10 8 8 8 8 6 6 6 11 13 13 10
6 4 4 9 11 10 9 8 6 5 3 5 8 7 5 3 3 4 3 2 3 3 4 4 4 6 7 6 7 3 3 3 3 9 6 4 4 3 4 3 2 2 3 4 4 4 4 4 4 5 5 5 5 5 5 5 5 7 6 5 6 6 6 7 9 7 2 6 6 7 8 7 7 8 8 8 8 8 7 6 11 13 12 12 11
1 2 3 3 3 4 7 9 7 6 5 7 7 7 6 6 5 2 3 4 4 5 5 5 5 4 4 6 6 2 1 5 3 4 6 7 6 5 6 6 6 5 4 4 5 6 5 5 5 4 5 5 5 4 5 6 5 6 5 5 5 6 7 7 7 8 6 6 8 8 8 6 6 8 8 7 8 8 9 9 12 12 13 12 11
1 2 2 2 3 3 4 3 7 7 6 8 7 7 6 7 7 5 3 3 5 5 5 4 4 5 3 3 5 6 6 15 11 10 8 3 1 3 4 5 6 7 9 10 9 9 7 7 6 6 4 4 5 4 4 4 4 5 5 5 5 5 5 7 8 8 9 6 7 7 7 7 6 6 7 7 7 8 9 8 12 14 14 14 12
4 2 3 4 3 2 2 7 9 8 6 8 7 7 6 5 5 4 3 4 4 5 5 7 5 8 6 6 6 6 8 9 7 9 9 9 8 5 2 2 3 7 10 13 15 13 8 6 5 7 6 5 5 3 3 5 5 5 6 6 5 6 6 7 8 9 8 5 6 6 6 5 6 7 7 7 8 8 7 11 18 18 15 13 12
8 9 9 6 6 8 9 9 8 8 6 10 8 8 8 6 6 2 3 4 5 5 2 7 6 7 7 6 6 8 7 7 6 7 7 5 7 8 8 6 5 4 5 3 4 2 1 3 5 6 6 4 4 5 4 3 3 4 5 6 7 7 8 7 5 5 6 5 8 7 8 8 6 7 6 8 10 9 7 11 15 15 11 12 11
8 5 2 3 4 5 6 9 8 7 6 10 8 10 10 9 7 3 1 2 3 4 7 6 8 7 8 7 5 8 7 5 5 6 5 2 2 4 4 5 5 6 6 3 5 6 5 4 4 3 4 4 3 4 4 4 4 4 4 4 4 4 6 6 7 6 6 6 7 7 6 8 7 8 8 7 8 8 9 8 11 12 14 13 11
7 4 2 2 0 5 8 8 9 7 6 9 10 10 10 11 6 2 2 2 3 5 7 7 7 8 7 8 7 5 5 4 6 8 9 6 2 4 4 5 5 6 5 5 9 8 9 10 9 6 5 7 8 8 9 10 4 2 3 4 5 6 5 6 6 6 6 6 4 5 6 8 6 7 9 8 7 8 8 7 7 10 16 16 13
9 7 4 3 4 5 7 8 8 8 6 8 11 11 11 12 7 3 2 3 3 6 5 5 5 6 10 14 9 5 5 4 7 7 10 6 4 4 4 5 6 6 4 6 7 7 10 10 9 9 7 6 6 5 6 7 6 3 5 4 6 6 6 6 6 6 6 5 2 6 7 7 8 7 9 8 7 3 5 5 6 8 11 12 11
9 7 6 6 7 8 8 8 13 10 7 8 12 13 14 13 9 4 3 3 4 5 4 4 3 5 6 10 13 10 7 6 8 8 9 7 4 4 4 4 4 5 6 9 8 8 7 8 6 6 5 6 5 4 3 6 6 5 3 3 3 4 4 5 5 6 6 3 2 5 6 8 9 7 7 10 9 5 1 6 7 7 8 9 6
Wind_Direction
147 154 163 170 172 160 130 33 16 63 115 190 256 138 165 149 284 280 260 253 250 224 180 200 166 134 111 150 158 138 125 131 152 137 138 139 151 167 173 176 191 197 212 228 243 243 258 269 277 268 271 288 286 289 289 289 289 289 288 299 301 303 305 307 310 311 313 315 315 317 318 317 312 307 304 304 302 296 294 295 298 298 297 297 292
144 157 166 167 160 121 83 325 194 237 108 196 176 230 126 171 232 235 257 250 249 235 229 221 163 140 166 154 165 116 123 98 37 131 134 142 131 155 173 180 191 202 212 226 240 253 256 258 262 266 278 278 280 276 282 283 285 291 295 297 300 300 303 306 308 309 311 312 315 316 317 315 310 304 305 302 299 299 301 303 305 308 312 314 316
129 119 97 102 65 104 126 8 328 54 7 350 1 359 67 212 273 275 258 253 226 127 227 211 95 166 169 147 157 158 146 164 174 169 141 131 131 148 176 179 190 203 216 229 244 254 260 263 263 271 272 272 277 280 283 286 286 288 292 292 292 295 299 301 302 303 306 309 312 316 316 314 308 313 310 303 303 307 312 322 334 332 335 340 340
121 124 127 120 90 104 110 60 353 354 54 301 239 194 13 270 247 257 254 270 320 252 246 233 178 131 202 143 128 138 162 153 205 151 118 136 146 140 147 178 191 201 212 225 236 245 254 258 265 270 270 273 276 280 280 283 283 284 286 286 286 291 293 295 296 298 303 309 312 315 311 306 307 307 309 315 321 330 341 343 351 2 0 346 338
130 107 86 63 53 62 92 97 240 302 83 267 261 102 207 243 255 239 255 279 226 222 263 211 35 170 175 158 149 138 190 173 165 141 134 141 148 137 157 160 176 199 209 215 226 234 247 254 264 262 266 268 271 273 275 274 277 279 279 281 284 286 290 291 295 298 303 309 313 311 305 304 303 313 327 338 342 353 1 12 10 1 354 343 333
72 117 110 154 175 134 88 84 321 3 262 245 276 344 294 308 274 254 228 237 193 211 235 121 136 250 164 126 137 166 193 169 138 107 156 158 126 148 154 154 154 165 196 217 219 230 239 248 253 257 262 265 267 268 271 273 275 277 278 281 283 285 286 290 293 297 302 307 311 307 303 306 314 332 333 339 5 14 12 12 7 357 347 332 326
116 53 40 25 14 60 99 149 173 11 357 314 352 34 319 258 249 12 322 328 309 48 329 288 102 6 353 359 169 168 104 47 85 135 99 116 161 153 161 155 166 166 176 164 216 219 221 229 236 247 251 258 263 267 269 272 274 277 279 282 284 284 285 288 292 297 300 306 308 306 306 320 330 326 332 351 12 12 5 10 5 355 341 335 332
117 94 80 122 316 210 222 98 76 240 179 198 217 140 227 234 339 322 355 329 324 259 174 350 199 154 136 45 29 313 119 150 175 130 124 133 88 80 101 154 169 170 165 170 176 198 210 215 224 233 242 246 254 260 267 272 278 280 283 286 288 287 288 290 294 296 300 303 305 309 322 331 325 327 341 348 356 2 2 6 16 352 337 336 334
136 168 168 157 184 192 174 157 179 182 190 192 170 151 233 125 260 14 332 299 306 300 255 213 204 155 197 159 193 185 140 217 127 108 111 108 143 147 128 111 119 151 156 178 180 182 199 212 213 219 229 239 242 249 260 276 285 289 294 297 294 292 292 294 294 298 297 299 310 321 329 323 325 325 322 331 341 349 354 4 4 350 334 335 332
131 125 105 102 114 102 109 114 98 66 27 30 25 36 305 305 22 22 321 312 296 305 285 200 211 157 186 129 171 71 46 36 89 113 150 150 133 120 145 155 194 161 176 181 170 170 190 202 215 213 217 229 240 241 250 269 286 301 306 304 302 300 300 297 298 293 292 305 310 318 313 313 310 303 292 302 324 331 339 341 349 336 332 327 325
114 79 52 95 86 99 87 79 98 118 118 102 133 20 359 41 319 343 307 296 289 274 215 280 221 181 117 78 54 80 81 91 213 142 162 128 136 173 164 178 179 181 139 169 177 168 195 175 193 207 208 218 222 222 232 237 288 301 303 305 303 302 298 300 291 294 301 300 306 301 300 296 299 285 287 290 315 318 317 325 327 327 326 321 319
119 99 70 55 92 90 81 73 57 72 53 63 61 150 9 7 354 341 321 318 294 288 266 204 24 43 73 119 134 133 140 189 232 148 143 137 155 184 132 149 139 155 153 174 285 114 77 130 192 202 201 191 196 201 204 194 205 234 262 290 301 294 293 282 286 296 295 299 298 296 295 298 297 297 293 296 304 311 309 307 312 311 313 311 309
114 94 81 63 54 86 86 64 80 68 34 37 54 37 44 52 326 323 316 298 286 254 338 33 88 70 82 116 129 161 193 209 169 146 175 166 162 160 124 147 163 174 142 139 126 135 144 348 191 202 168 142 184 184 183 173 173 183 190 212 254 270 259 263 272 275 280 286 292 292 294 293 295 299 299 302 302 303 303 302 301 300 299 302 302
105 117 119 134 109 98 91 64 83 103 91 76 339 346 42 41 333 303 247 267 272 340 55 16 321 169 181 158 143 203 181 232 198 182 159 149 151 148 159 132 107 94 81 122 148 197 94 178 237 127 110 140 172 172 186 189 176 180 186 195 204 213 232 244 253 268 271 278 287 286 288 287 287 289 291 293 294 294 297 298 295 295 294 294 297
127 144 117 138 114 112 124 158 101 110 122 118 39 9 49 359 300 299 318 312 271 3 97 74 259 129 88 115 165 175 210 254 245 166 161 149 161 168 161 136 138 132 165 106 92 113 131 250 316 73 142 167 153 175 194 186 169 185 188 194 198 210 223 234 246 256 265 270 271 277 277 279 280 281 284 284 284 285 285 287 288 289 290 290 291
156 146 110 131 130 129 143 145 123 110 78 69 93 243 5 326 273 296 347 313 302 141 153 62 19 38 240 234 185 146 227 320 117 167 148 165 160 124 120 116 137 136 160 147 145 135 163 210 96 26 332 88 356 154 179 158 175 183 193 202 210 215 216 227 239 248 259 264 266 266 269 268 269 269 271 277 279 280 282 280 280 280 283 286 287
173 128 126 116 91 100 128 117 104 80 63 232 175 262 235 314 349 4 353 318 323 12 23 55 46 85 129 1 70 32 358 207 156 336 304 155 144 127 125 144 144 144 191 138 128 151 185 135 176 197 175 140 114 306 142 179 168 193 188 201 211 217 221 218 226 245 255 261 261 263 265 264 263 263 263 265 270 274 276 278 277 277 278 278 281
138 104 133 126 115 128 158 135 135 163 189 250 336 324 325 280 34 347 335 312 317 329 66 300 103 174 174 196 162 174 238 312 65 314 305 63 127 138 139 147 123 156 140 127 161 188 176 148 183 231 179 195 169 200 241 198 181 190 178 198 211 216 222 216 220 235 251 259 261 260 261 262 262 261 262 263 265 268 270 271 273 275 275 276 275
124 113 189 132 150 167 175 180 172 191 188 205 184 215 218 10 109 312 331 308 320 16 343 60 19 8 360 12 44 104 292 37 109 328 358 335 344 176 157 139 139 144 157 193 162 161 181 164 199 185 182 190 184 209 227 288 264 180 179 186 196 211 221 223 217 228 246 259 263 260 259 262 261 260 261 262 263 264 265 267 270 271 272 272 274
135 142 201 146 159 169 171 188 146 204 212 187 345 71 102 217 142 4 289 284 308 6 330 350 123 357 33 357 35 18 342 16 11 83 148 282 336 7 220 132 139 160 178 183 163 161 177 180 178 163 168 200 201 207 205 232 259 235 191 179 196 213 222 224 219 220 237 253 263 265 263 262 262 262 261 261 260 259 262 263 266 269 269 270 270
168 174 181 180 145 165 167 135 170 227 152 138 198 189 167 263 153 152 279 292 319 319 341 353 341 96 349 338 337 287 67 101 358 74 107 12 359 102 15 16 128 135 124 85 246 174 178 187 178 165 151 191 225 240 226 192 233 315 214 192 212 218 230 228 221 222 233 246 258 265 268 268 267 267 267 265 263 261 261 261 261 265 269 270 268
159 187 154 182 159 170 178 163 183 221 177 201 183 188 193 191 156 207 206 333 344 322 25 355 356 346 138 294 333 349 354 6 258 113 90 91 156 343 22 17 8 8 39 215 315 189 186 150 165 135 127 198 212 242 26 16 343 285 189 189 215 224 236 237 232 229 233 245 255 263 267 269 269 270 270 269 268 268 267 265 262 262 266 269 270
169 185 180 193 175 198 180 168 183 190 121 293 151 212 173 199 187 112 358 167 301 345 344 287 174 317 287 214 228 227 122 58 64 20 31 52 24 357 93 90 54 346 347 334 332 314 77 87 68 81 158 154 45 44 65 328 305 293 318 240 225 234 239 241 237 238 247 256 257 259 265 268 270 271 271 272 272 273 272 270 267 264 264 266 267
188 172 191 181 185 175 159 177 160 194 155 204 204 59 314 57 105 110 258 255 269 39 340 314 306 180 284 223 239 185 164 239 130 117 105 70 320 183 113 312 26 345 298 325 273 297 66 122 157 151 96 90 158 155 231 247 264 268 269 281 265 242 243 243 241 239 247 259 264 262 265 270 272 271 272 273 275 274 273 272 270 268 265 265 267
177 187 186 186 172 164 173 164 183 179 50 189 177 161 77 164 240 135 205 201 214 177 248 262 356 357 331 346 336 346 297 130 14 175 160 134 194 62 18 341 144 226 279 333 326 317 312 68 357 116 116 122 149 178 257 263 259 242 224 271 257 244 245 237 240 237 242 256 261 263 261 268 271 266 267 267 270 273 275 275 274 272 269 266 267
172 207 189 167 175 181 171 180 170 155 172 169 177 176 156 146 256 149 210 128 208 158 247 275 251 243 353 14 326 323 353 341 110 233 66 104 55 55 26 336 302 261 214 297 250 294 313 348 41 104 129 139 34 202 231 250 253 239 232 237 270 273 273 250 243 239 245 253 256 258 258 261 267 271 270 271 269 271 275 275 276 276 276 274 271
173 181 211 157 185 157 176 173 162 158 168 167 182 171 158 144 143 216 138 236 202 26 273 281 279 85 242 209 342 308 20 301 332 17 26 81 32 104 159 336 326 324 315 250 252 226 253 251 160 177 142 190 225 232 253 252 249 230 213 232 245 272 283 260 231 236 247 252 255 255 253 259 262 270 274 270 273 276 281 282 280 280 279 278 277
161 173 168 175 154 154 170 178 158 169 176 187 197 170 180 192 169 222 207 180 234 165 240 280 282 285 323 53 316 276 313 20 3 333 52 29 5 135 130 177 133 322 333 308 339 306 291 286 57 103 177 210 220 240 249 258 273 249 221 236 252 252 208 206 224 240 249 257 257 254 252 255 266 268 269 270 273 278 280 280 282 284 285 284 284
162 181 169 166 158 168 180 175 164 168 179 184 196 178 164 190 197 178 258 231 154 101 271 45 295 300 260 198 170 346 331 31 304 321 98 86 314 349 286 226 124 120 281 323 319 320 327 330 326 255 228 229 241 241 250 265 215 201 215 228 223 276 183 211 231 248 260 261 254 249 247 254 262 268 266 267 271 274 279 280 282 285 286 285 285
194 174 168 166 164 187 182 185 167 184 181 182 189 186 164 211 203 177 226 265 111 272 255 266 254 201 269 292 279 220 231 178 197 220 158 163 175 256 267 161 137 180 184 254 277 288 296 315 319 319 268 275 268 259 240 297 175 222 270 316 306 319 174 226 248 263 269 268 264 247 244 251 259 263 266 268 272 277 276 278 280 283 285 285 284
186 137 167 167 169 186 183 197 161 184 188 191 173 188 165 220 210 184 202 171 191 237 254 240 259 249 238 280 20 281 326 333 355 326 349 148 183 196 266 2 149 137 136 163 268 270 316 303 300 300 317 305 298 336 329 334 267 240 292 313 334 321 303 278 272 278 280 280 273 244 241 248 251 258 263 264 269 271 275 268 271 275 280 282 283
177 171 181 178 180 180 186 206 182 188 186 202 177 181 187 203 233 223 177 167 188 217 259 263 268 22 319 341 342 356 303 327 318 321 329 249 257 266 250 220 208 165 167 202 221 268 270 294 304 310 299 298 327 320 320 316 318 222 280 320 319 300 284 275 273 264 265 267 262 224 239 244 246 255 258 260 261 264 266 265 266 273 270 275 278
182 172 197 190 185 182 192 192 207 173 185 197 182 167 177 188 248 279 334 216 195 222 219 263 288 204 223 203 271 288 319 287 297 292 294 279 209 201 213 205 222 218 208 205 234 265 268 277 302 293 304 330 308 300 309 323 338 319 326 309 301 297 286 278 295 325 290 261 210 224 238 243 246 252 255 255 256 259 262 265 269 270 269 271 274
185 183 191 194 193 189 199 185 213 172 165 193 204 183 175 196 207 210 212 177 227 237 276 279 230 281 302 234 232 261 231 219 227 239 250 270 272 262 192 212 205 219 192 196 227 237 283 278 279 308 304 290 292 343 344 327 303 310 300 293 288 289 301 336 344 327 308 193 213 234 246 248 252 254 256 254 257 262 264 263 265 267 267 269 267
193 194 178 197 177 182 204 171 202 131 163 203 212 210 191 192 206 241 233 186 200 220 222 218 244 249 252 255 248 231 244 237 209 224 244 262 308 328 335 4 11 346 350 360 97 283 281 285 303 297 309 334 331 318 308 301 309 305 309 314 334 329 337 340 329 317 171 212 227 247 253 260 261 263 261 259 262 265 267 267 265 266 265 264 264
196 155 200 232 174 171 197 158 175 163 170 205 215 214 197 194 217 216 249 300 277 230 225 240 242 230 230 226 246 258 267 284 284 9 354 315 284 290 343 313 296 280 308 324 321 323 314 295 277 280 285 299 293 289 300 308 310 323 313 321 324 327 316 306 306 314 245 236 246 255 276 271 267 267 268 269 265 266 269 269 269 268 265 259 256
263 185 188 197 152 169 196 182 191 192 191 199 207 222 204 193 208 223 224 204 235 254 260 252 256 251 255 259 244 237 238 262 292 264 227 237 253 351 321 315 13 57 319 306 282 281 291 291 297 294 305 287 277 279 273 290 300 297 327 325 310 289 285 278 306 316 316 294 264 268 268 265 266 269 275 276 271 271 271 273 275 272 267 261 249
191 255 203 178 183 185 209 189 195 197 206 207 199 225 218 207 212 227 223 251 242 245 247 249 238 237 241 235 233 239 246 244 246 277 321 335 2 248 250 258 248 23 312 289 276 268 248 278 296 301 286 279 286 281 275 271 283 301 287 268 268 270 268 280 284 312 321 327 341 335 311 296 281 280 284 279 276 277 282 281 274 271 268 262 251
182 207 235 211 173 193 187 210 206 201 210 213 203 200 220 226 193 104 291 267 257 284 279 281 282 270 257 245 224 215 231 252 249 241 241 228 236 275 268 271 244 238 295 355 322 298 269 265 263 249 272 267 283 289 271 269 270 255 260 271 276 273 266 268 296 302 328 327 318 301 297 300 308 320 315 305 294 284 282 280 277 274 273 269 255
199 198 212 214 196 182 191 208 197 202 206 226 200 196 211 232 180 185 191 241 255 251 290 288 284 271 255 250 248 241 231 266 282 270 290 329 258 259 48 304 344 126 226 247 266 286 290 287 285 295 288 290 281 260 255 262 279 285 258 257 289 320 328 329 331 329 318 309 303 317 323 327 325 314 306 304 304 296 286 285 284 276 275 276 260
209 194 194 216 229 203 201 196 191 197 196 205 200 220 211 217 220 224 199 219 238 229 253 275 282 304 293 288 280 230 176 195 236 216 160 173 153 358 314 345 349 337 312 303 300 307 305 286 284 279 284 288 278 277 298 290 296 285 306 356 341 335 337 328 311 304 289 305 306 317 323 327 316 320 319 311 309 311 315 316 297 291 292 281 260
210 196 180 179 204 207 198 193 205 197 195 196 2 257 216 191 215 237 226 166 244 281 265 279 291 285 286 292 287 290 270 259 223 232 208 191 178 208 201 251 267 295 297 289 279 275 277 289 291 299 301 302 314 334 345 329 308 344 360 359 347 335 325 314 301 299 313 305 330 324 314 319 320 312 310 312 318 318 313 318 328 329 327 316 283
208 203 202 187 188 200 192 194 187 203 100 47 5 20 26 309 244 213 218 178 201 229 241 241 271 288 280 268 273 253 252 219 221 210 227 216 212 240 253 252 295 295 289 283 272 263 265 279 293 296 295 303 321 326 306 315 357 356 338 334 317 321 326 328 319 313 311 357 327 314 308 313 310 310 314 311 308 307 308 314 324 326 326 317 297
108 260 209 253 247 228 190 175 179 104 82 40 30 18 23 26 6 303 232 224 212 218 248 253 256 269 283 293 304 41 308 324 263 215 208 217 217 224 236 242 244 244 221 232 276 293 291 290 290 293 299 291 292 308 328 339 342 336 332 329 325 327 324 316 309 304 314 337 320 310 305 310 316 305 300 305 310 309 316 312 314 318 322 318 296
308 224 270 225 234 257 260 181 114 84 74 27 26 29 24 26 13 341 264 265 284 275 259 259 245 239 273 325 350 40 59 38 22 1 359 360 348 254 277 296 291 274 264 249 228 234 252 260 272 272 271 300 315 326 344 341 353 333 336 328 325 318 310 300 297 304 308 318 309 306 307 311 304 301 307 312 318 318 317 329 335 327 322 327 307
323 306 255 307 289 260 279 78 92 75 66 17 8 22 27 21 4 346 287 268 265 278 287 292 360 53 46 39 49 63 47 41 21 9 4 3 1 352 313 266 268 267 251 240 249 249 256 275 284 282 289 300 301 338 5 15 354 334 324 319 325 313 305 298 302 297 297 312 308 318 305 311 315 310 313 323 330 325 328 349 341 318 324 337 337
41 26 25 358 348 23 32 66 65 68 46 15 18 9 9 353 346 325 306 292 288 280 331 48 62 58 54 63 79 78 66 46 27 1 27 5 2 345 337 323 317 309 299 350 46 20 241 226 255 273 285 317 354 350 348 349 334 315 325 322 320 307 296 294 305 326 324 2 353 337 317 320 326 328 321 327 326 323 329 333 313 310 337 355 345
87 85 37 351 358 41 66 90 95 68 44 16 17 21 3 352 323 258 240 286 290 308 57 50 56 48 47 47 61 76 65 55 7 356 18 350 320 290 310 337 328 325 337 36 83 72 68 40 15 356 348 322 279 293 303 327 340 354 330 316 299 305 323 330 320 331 332 358 354 359 329 315 326 322 315 317 320 315 320 311 307 326 357 348 331
118 110 62 68 128 126 110 100 95 83 55 18 29 27 19 358 342 348 332 358 22 52 62 67 56 57 54 53 49 56 68 49 6 0 359 350 20 5 343 329 329 324 327 345 358 360 19 8 352 324 301 318 328 337 343 13 56 286 314 334 348 343 332 330 331 337 339 329 4 355 314 305 325 327 314 316 314 306 303 311 319 347 339 323 323
136 167 144 89 42 50 85 96 95 89 69 32 32 35 27 13 346 341 312 61 67 78 71 70 85 69 58 58 59 59 55 46 4 10 0 353 11 358 341 336 325 321 337 0 347 342 344 340 325 321 313 313 323 322 49 68 52 10 6 354 352 350 347 341 328 331 312 297 33 353 328 310 320 326 314 306 298 266 301 308 341 332 327 328 330
117 135 133 88 77 65 63 74 83 80 70 42 33 39 36 26 12 329 32 73 69 73 76 77 81 98 76 56 50 47 48 32 14 17 12 7 12 350 347 321 333 344 9 350 338 332 335 331 329 331 337 358 3 29 84 92 45 41 30 0 350 349 337 331 328 328 317 301 17 22 335 325 328 328 335 324 319 315 314 349 333 340 334 316 338